Location: Chiroubles
(46.1812°N, 4.6660°E)
Time: 22:54:33
(UTC+00:00)

SR - Pass Details

Date: 03 December 2020
Orbit: 575 x 880 km, 66.7° (Epoch: 24 January)

Event Time Altitude Azimuth Distance (km) Brightness Sun altitude
Rises 17:55:35 0° 237° (WSW) 2,825 ? -19.9°
Reaches altitude 10° 17:57:54 10° 246° (WSW) 1,956 ? -20.3°
Maximum altitude 18:01:58 36° 313° (NW) 1,017 ? -21.0°
Enters shadow 18:04:41 19° 9° (N) 1,548 ? -21.5°
